STARLINK-1174, 45075

Orbit data source: Space-Track

STARLINK-1174, 45075 is a payload satellite owned by SpaceX/Seattle (US) in LEO that was launched on Wed, 29 Jan 2020 UTC via an FALCON 9 launch vehicle from the Air Force Eastern Test Range (AFETR). Payloads include a variety of satellites, spacecraft, and rockets equipped with specific instruments for various scientific and technological missions. These include communications satellites like Starlink; space stations such as the ISS; scientific satellites like the Hubble; Earth observation satellites from companies like Planet Labs, Umbra, and HawkEye 360; GPS; miniature CubeSats for education and research; and military/defense satellites.

Loading next visibility...
STARLINK-1174 details
Identifier
45075, 2020-006AH
Orbit
LEO
Last TLE update16 hours ago
Origin
Flag of USSpaceX/Seattle (US)
ManufacturerSpaceX/Seattle
MissionOperational Commercial Communications
Bus & MotorSTARLINK, Unknown motor
Mass260 kg wet, ~248 kg dry
Launch date (UTC)
2020-01-29 (5 years ago)
Launch vehicle
FALCON 9
Launch site
Air Force Eastern Test Range (AFETR)
Object type
Payload
Rocket body
Debris
Shape & HBRBox + 1 Pan, 8.86 m
Radar Cross Section13.562 m², Large (>1 m²)

Expand to show TLE details & history

TLE from 16 hours ago
0 STARLINK-1174
1 45075U 20006AH  25044.91668981  .01252382  00000-0  51905-1 0  9996
2 45075  53.0539 211.5419 0001211  68.7826 135.8674 15.20369161  5736
Epoch: 2025-02-13T22:00Z
Definitive object data (Epoch: 2025-02-13T22:00:01.999Z)
Latitude-19.65777°
Longitude-67.15587°
Altitude510.757 km
Speed7.608 km/s
True Right ascension03h 08m 09s
True Declination-19° 32' 43"
Sunlit
Object was in daylight at TLE epoch
Visualization TLE readout
Latitude-43.55355°
Longitude-40.3749°
Altitude515.489 km
Speed7.605 km/s
Apparent Right ascension04h 44m 48s
Apparent Declination-41° 39' 09"
Sunlit
Object is in daylight
Visualization observer readout
Local Sidereal Time16:34:07
Azimuth228.491° WSW
Elevation-87.335°
Doppler factor1
Orbital elements
Apogee altitude505.832 km
Perigee altitude504.165 km
Semi-major axis6,883.136 km
Eccentricity0.0001211
Inclination53.0539°
RAAN211.5419°
Arg. of periapsis68.7826°
True anomaly135.87706°
Mean anomaly135.8674°
Eccentric anomaly135.87223°
Mean motion3.8007 °/min
BSTAR0.051905
Orbital period94.72 mins
Loading maneuver chart data...
Loading historical data...
Loading historical data...
Loading historical data...
Loading historical data...
Loading historical data...
Loading historical data...
Loading historical data...

STARLINK-1174 Visibility forecast

Observer location: undefined°, undefined

Span
Click to sort rows by Start time (UTC) header in descending order
Start Az.
Max El. time (UTC)
Max El. Az.
Max El.
End time (UTC)
End Az.
6 mins2025-02-14 14:40:14.600Z266.408° W2025-02-14 14:43:14.600Z331.712° NNW29.251°2025-02-14 14:46:14.600Z32.837° NE
5 mins2025-02-14 19:39:14.600Z332.507° NNW2025-02-14 19:41:14.600Z14.063° NNE28.636°2025-02-14 19:44:14.600Z90.342° ESE
5 mins2025-02-14 21:18:14.600Z275.991° WNW2025-02-14 21:20:14.600Z222.954° SW27.863°2025-02-14 21:23:14.600Z165.815° S
5 mins2025-02-15 12:40:14.600Z180.84° SSW2025-02-15 12:42:14.600Z128.194° SE27.792°2025-02-15 12:45:14.600Z70.198° E
|